Time,TemperatureF,DewpointF,PressureIn,WindDirection,WindDirectionDegrees,WindSpeedMPH,WindSpeedGustMPH,Humidity,HourlyPrecipIn,Conditions,Clouds,dailyrainin,SoftwareType,DateUTC
2013-03-19 00:02:00,13.0,7.0,-100.00,NNW,345,16.0,20.0,74,0.00,,,0.00,,2013-03-19 05:02:00,
2013-03-19 00:12:00,13.0,7.0,-100.00,NNW,340,14.0,19.0,74,0.00,,,0.00,,2013-03-19 05:12:00,
2013-03-19 00:22:00,13.0,5.0,-100.00,NNW,340,16.0,19.0,74,0.00,,,0.00,,2013-03-19 05:22:00,
2013-03-19 00:32:00,12.0,5.0,-100.00,NNW,345,14.0,19.0,73,0.00,,,0.00,,2013-03-19 05:32:00,
2013-03-19 00:42:00,12.0,5.0,-100.00,North,350,16.0,24.0,72,0.00,,,0.00,,2013-03-19 05:42:00,
2013-03-19 00:52:00,12.0,5.0,-100.00,North,350,17.0,22.0,71,0.00,,,0.00,,2013-03-19 05:52:00,
2013-03-19 01:02:00,12.0,3.0,-100.00,NNW,345,18.0,25.0,71,0.00,,,0.00,,2013-03-19 06:02:00,
2013-03-19 01:12:00,11.0,3.0,-100.00,North,350,18.0,23.0,71,0.00,,,0.00,,2013-03-19 06:12:00,
2013-03-19 01:22:00,11.0,3.0,-100.00,North,355,16.0,23.0,71,0.00,,,0.00,,2013-03-19 06:22:00,
2013-03-19 01:32:00,11.0,3.0,-100.00,NNW,335,14.0,20.0,71,0.00,,,0.00,,2013-03-19 06:32:00,
2013-03-19 01:42:00,11.0,3.0,-100.00,NNW,335,15.0,17.0,71,0.00,,,0.00,,2013-03-19 06:42:00,
2013-03-19 01:52:00,10.0,3.0,-100.00,NNW,330,12.0,19.0,72,0.00,,,0.00,,2013-03-19 06:52:00,
2013-03-19 02:02:00,10.0,3.0,-100.00,NW,315,11.0,17.0,72,0.00,,,0.00,,2013-03-19 07:02:00,
2013-03-19 02:12:00,10.0,3.0,-100.00,NW,320,9.0,13.0,72,0.00,,,0.00,,2013-03-19 07:12:00,
2013-03-19 02:21:00,10.0,3.0,-100.00,NNW,345,12.0,15.0,72,0.00,,,0.00,,2013-03-19 07:21:00,
2013-03-19 02:32:00,10.0,3.0,-100.00,NNW,335,9.0,16.0,72,0.00,,,0.00,,2013-03-19 07:32:00,
2013-03-19 02:42:00,10.0,3.0,-100.00,NW,320,9.0,12.0,72,0.00,,,0.00,,2013-03-19 07:42:00,
2013-03-19 02:52:00,10.0,3.0,-100.00,NW,325,9.0,12.0,73,0.00,,,0.00,,2013-03-19 07:52:00,
2013-03-19 03:02:00,9.0,3.0,-100.00,NNW,330,10.0,12.0,73,0.00,,,0.00,,2013-03-19 08:02:00,
2013-03-19 03:12:00,9.0,3.0,-100.00,NW,315,9.0,12.0,73,0.00,,,0.00,,2013-03-19 08:12:00,
2013-03-19 03:22:00,9.0,3.0,-100.00,NW,315,11.0,14.0,74,0.00,,,0.00,,2013-03-19 08:22:00,
2013-03-19 03:32:00,9.0,3.0,-100.00,NW,320,11.0,13.0,74,0.00,,,0.00,,2013-03-19 08:32:00,
2013-03-19 03:42:00,9.0,3.0,-100.00,NW,320,11.0,13.0,75,0.00,,,0.00,,2013-03-19 08:42:00,
2013-03-19 03:52:00,9.0,3.0,-100.00,NW,320,10.0,12.0,75,0.00,,,0.00,,2013-03-19 08:52:00,
2013-03-19 04:02:00,8.0,3.0,-100.00,NW,310,8.0,11.0,76,0.00,,,0.00,,2013-03-19 09:02:00,
2013-03-19 04:12:00,8.0,3.0,-100.00,NNW,330,9.0,11.0,77,0.00,,,0.00,,2013-03-19 09:12:00,
2013-03-19 04:22:00,8.0,3.0,-100.00,NW,320,7.0,11.0,77,0.00,,,0.00,,2013-03-19 09:22:00,
2013-03-19 04:32:00,8.0,1.0,-100.00,NNW,330,8.0,10.0,77,0.00,,,0.00,,2013-03-19 09:32:00,
2013-03-19 04:42:00,8.0,3.0,-100.00,NW,325,9.0,13.0,77,0.00,,,0.00,,2013-03-19 09:42:00,
2013-03-19 04:52:00,8.0,3.0,-100.00,NNW,330,9.0,14.0,77,0.00,,,0.00,,2013-03-19 09:52:00,
2013-03-19 05:03:00,8.0,3.0,-100.00,NNW,330,7.0,12.0,77,0.00,,,0.00,,2013-03-19 10:03:00,
2013-03-19 05:12:00,8.0,1.0,-100.00,NNW,340,6.0,9.0,77,0.00,,,0.00,,2013-03-19 10:12:00,
2013-03-19 05:23:00,8.0,1.0,-100.00,NNW,340,6.0,7.0,78,0.00,,,0.00,,2013-03-19 10:23:00,
2013-03-19 05:32:00,7.0,1.0,-100.00,NNW,330,5.0,6.0,78,0.00,,,0.00,,2013-03-19 10:32:00,
2013-03-19 05:42:00,7.0,1.0,-100.00,North,0,6.0,7.0,79,0.00,,,0.00,,2013-03-19 10:42:00,
2013-03-19 05:52:00,7.0,1.0,-100.00,North,355,4.0,7.0,79,0.00,,,0.00,,2013-03-19 10:52:00,
2013-03-19 06:02:00,7.0,1.0,-100.00,WNW,290,3.0,4.0,79,0.00,,,0.00,,2013-03-19 11:02:00,
2013-03-19 06:12:00,7.0,1.0,-100.00,West,260,2.0,5.0,79,0.00,,,0.00,,2013-03-19 11:12:00,
2013-03-19 06:22:00,7.0,1.0,-100.00,WNW,295,4.0,6.0,79,0.00,,,0.00,,2013-03-19 11:22:00,
2013-03-19 06:32:00,6.0,1.0,-100.00,West,265,7.0,9.0,80,0.00,,,0.00,,2013-03-19 11:32:00,
2013-03-19 06:42:00,7.0,3.0,-100.00,WNW,290,5.0,9.0,81,0.00,,,0.00,,2013-03-19 11:42:00,
2013-03-19 06:52:00,7.0,3.0,-100.00,NW,310,4.0,6.0,81,0.00,,,0.00,,2013-03-19 11:52:00,
2013-03-19 07:02:00,7.0,1.0,-100.00,WNW,290,6.0,7.0,81,0.00,,,0.00,,2013-03-19 12:02:00,
2013-03-19 07:12:00,7.0,1.0,-100.00,West,280,8.0,11.0,81,0.00,,,0.00,,2013-03-19 12:12:00,
2013-03-19 07:22:00,7.0,3.0,-100.00,WNW,300,6.0,9.0,81,0.00,,,0.00,,2013-03-19 12:22:00,
2013-03-19 07:33:00,7.0,3.0,-100.00,WNW,300,4.0,6.0,81,0.00,,,0.00,,2013-03-19 12:33:00,
2013-03-19 07:42:00,7.0,1.0,-100.00,WNW,295,3.0,5.0,81,0.00,,,0.00,,2013-03-19 12:42:00,
2013-03-19 07:52:00,7.0,1.0,-100.00,North,0,4.0,5.0,81,0.00,,,0.00,,2013-03-19 12:52:00,
2013-03-19 08:02:00,7.0,3.0,-100.00,WNW,285,3.0,6.0,81,0.00,,,0.00,,2013-03-19 13:02:00,
2013-03-19 08:12:00,8.0,3.0,-100.00,NNW,330,2.0,5.0,81,0.00,,,0.00,,2013-03-19 13:12:00,
2013-03-19 08:22:00,8.0,3.0,-100.00,North,0,3.0,4.0,81,0.00,,,0.00,,2013-03-19 13:22:00,
2013-03-19 08:32:00,9.0,5.0,-100.00,North,5,6.0,7.0,80,0.00,,,0.00,,2013-03-19 13:32:00,
2013-03-19 08:42:00,9.0,5.0,-100.00,NNE,15,9.0,12.0,79,0.00,,,0.00,,2013-03-19 13:42:00,
2013-03-19 08:52:00,10.0,5.0,-100.00,NNE,20,11.0,12.0,77,0.00,,,0.00,,2013-03-19 13:52:00,
2013-03-19 09:02:00,11.0,5.0,-100.00,NNE,30,11.0,14.0,76,0.00,,,0.00,,2013-03-19 14:02:00,
2013-03-19 09:12:00,11.0,5.0,-100.00,NE,35,11.0,15.0,76,0.00,,,0.00,,2013-03-19 14:12:00,
2013-03-19 09:22:00,11.0,5.0,-100.00,NE,35,11.0,16.0,75,0.00,,,0.00,,2013-03-19 14:22:00,
2013-03-19 09:32:00,12.0,5.0,-100.00,NE,45,12.0,14.0,74,0.00,,,0.00,,2013-03-19 14:32:00,
2013-03-19 09:42:00,12.0,5.0,-100.00,NNE,30,10.0,15.0,73,0.00,,,0.00,,2013-03-19 14:42:00,
2013-03-19 09:52:00,13.0,5.0,-100.00,NNW,345,8.0,10.0,72,0.00,,,0.00,,2013-03-19 14:52:00,
2013-03-19 10:02:00,14.0,7.0,-100.00,NNW,330,7.0,11.0,70,0.00,,,0.00,,2013-03-19 15:02:00,
2013-03-19 10:12:00,14.0,5.0,-100.00,NNW,335,6.0,9.0,68,0.00,,,0.00,,2013-03-19 15:12:00,
2013-03-19 10:22:00,15.0,7.0,-100.00,WSW,255,2.0,7.0,68,0.00,,,0.00,,2013-03-19 15:22:00,
2013-03-19 10:33:00,15.0,5.0,-100.00,North,350,4.0,6.0,66,0.00,,,0.00,,2013-03-19 15:33:00,
2013-03-19 10:43:00,16.0,7.0,-100.00,NNW,340,5.0,10.0,65,0.00,,,0.00,,2013-03-19 15:43:00,
2013-03-19 10:53:00,17.0,7.0,-100.00,NNE,30,6.0,12.0,64,0.00,,,0.00,,2013-03-19 15:53:00,
2013-03-19 11:03:00,17.0,7.0,-100.00,NNE,15,7.0,9.0,63,0.00,,,0.00,,2013-03-19 16:03:00,
2013-03-19 11:13:00,18.0,7.0,-100.00,NE,35,9.0,14.0,62,0.00,,,0.00,,2013-03-19 16:13:00,
2013-03-19 11:23:00,18.0,7.0,-100.00,NNE,15,11.0,14.0,63,0.00,,,0.00,,2013-03-19 16:23:00,
2013-03-19 11:34:00,19.0,9.0,-100.00,NNE,15,8.0,14.0,62,0.00,,,0.00,,2013-03-19 16:34:00,
2013-03-19 11:43:00,19.0,9.0,-100.00,NNE,15,9.0,12.0,61,0.00,,,0.00,,2013-03-19 16:43:00,
2013-03-19 11:53:00,19.0,9.0,-100.00,North,5,8.0,11.0,61,0.00,,,0.00,,2013-03-19 16:53:00,
2013-03-19 12:03:00,19.0,9.0,-100.00,North,350,7.0,10.0,60,0.00,,,0.00,,2013-03-19 17:03:00,
2013-03-19 12:13:00,20.0,9.0,-100.00,North,350,7.0,11.0,60,0.00,,,0.00,,2013-03-19 17:13:00,
2013-03-19 12:23:00,20.0,9.0,-100.00,North,0,6.0,11.0,57,0.00,,,0.00,,2013-03-19 17:23:00,
2013-03-19 12:34:00,22.0,9.0,-100.00,North,10,7.0,9.0,57,0.00,,,0.00,,2013-03-19 17:34:00,
2013-03-19 12:43:00,22.0,10.0,-100.00,North,0,8.0,10.0,57,0.00,,,0.00,,2013-03-19 17:43:00,
2013-03-19 12:52:00,22.0,9.0,-100.00,North,350,9.0,12.0,56,0.00,,,0.00,,2013-03-19 17:52:00,
2013-03-19 13:03:00,23.0,9.0,-100.00,NNW,335,6.0,10.0,54,0.00,,,0.00,,2013-03-19 18:03:00,
2013-03-19 13:13:00,24.0,10.0,-100.00,North,0,4.0,9.0,54,0.00,,,0.00,,2013-03-19 18:13:00,
2013-03-19 13:23:00,24.0,10.0,-100.00,North,355,4.0,12.0,54,0.00,,,0.00,,2013-03-19 18:23:00,
2013-03-19 13:33:00,25.0,10.0,-100.00,North,0,7.0,12.0,54,0.00,,,0.00,,2013-03-19 18:33:00,
2013-03-19 13:42:00,24.0,10.0,-100.00,North,5,9.0,11.0,55,0.00,,,0.00,,2013-03-19 18:42:00,
2013-03-19 13:52:00,25.0,12.0,-100.00,North,0,6.0,12.0,57,0.00,,,0.00,,2013-03-19 18:52:00,
2013-03-19 14:02:00,24.0,12.0,-100.00,NNW,345,10.0,14.0,58,0.00,,,0.00,,2013-03-19 19:02:00,
2013-03-19 14:12:00,24.0,12.0,-100.00,NNW,335,9.0,14.0,59,0.00,,,0.00,,2013-03-19 19:12:00,
2013-03-19 14:22:00,25.0,14.0,-100.00,NNW,340,9.0,14.0,61,0.00,,,0.00,,2013-03-19 19:22:00,
2013-03-19 14:32:00,25.0,14.0,-100.00,NNW,340,12.0,17.0,63,0.00,,,0.00,,2013-03-19 19:32:00,
2013-03-19 14:42:00,25.0,16.0,-100.00,North,0,9.0,15.0,65,0.00,,,0.00,,2013-03-19 19:42:00,
2013-03-19 14:52:00,26.0,16.0,-100.00,North,0,11.0,15.0,66,0.00,,,0.00,,2013-03-19 19:52:00,
2013-03-19 15:02:00,26.0,16.0,-100.00,NNW,340,12.0,17.0,66,0.00,,,0.00,,2013-03-19 20:02:00,
2013-03-19 15:12:00,26.0,16.0,-100.00,North,0,11.0,17.0,66,0.00,,,0.00,,2013-03-19 20:12:00,
2013-03-19 15:22:00,26.0,16.0,-100.00,NNW,335,12.0,18.0,66,0.00,,,0.00,,2013-03-19 20:22:00,
2013-03-19 15:32:00,26.0,16.0,-100.00,NW,325,12.0,17.0,65,0.00,,,0.00,,2013-03-19 20:32:00,
2013-03-19 15:42:00,26.0,16.0,-100.00,NNW,345,12.0,19.0,65,0.00,,,0.00,,2013-03-19 20:42:00,
2013-03-19 15:52:00,27.0,16.0,-100.00,North,350,16.0,19.0,64,0.00,,,0.00,,2013-03-19 20:52:00,
2013-03-19 16:02:00,27.0,16.0,-100.00,NW,320,13.0,20.0,63,0.00,,,0.00,,2013-03-19 21:02:00,
2013-03-19 16:12:00,27.0,16.0,-100.00,NNW,340,14.0,19.0,63,0.00,,,0.00,,2013-03-19 21:12:00,
2013-03-19 16:22:00,27.0,16.0,-100.00,North,350,16.0,21.0,63,0.00,,,0.00,,2013-03-19 21:22:00,
2013-03-19 16:33:00,27.0,16.0,-100.00,NNW,340,17.0,24.0,62,0.00,,,0.00,,2013-03-19 21:33:00,
2013-03-19 16:42:00,26.0,16.0,-100.00,NNW,340,21.0,25.0,62,0.00,,,0.00,,2013-03-19 21:42:00,
2013-03-19 16:52:00,27.0,16.0,-100.00,NNW,330,19.0,22.0,62,0.00,,,0.00,,2013-03-19 21:52:00,
2013-03-19 17:03:00,27.0,16.0,-100.00,NNW,330,18.0,24.0,63,0.00,,,0.00,,2013-03-19 22:03:00,
2013-03-19 17:12:00,27.0,16.0,-100.00,NNW,345,18.0,23.0,64,0.00,,,0.00,,2013-03-19 22:12:00,
2013-03-19 17:23:00,26.0,16.0,-100.00,NNW,335,21.0,26.0,66,0.00,,,0.00,,2013-03-19 22:23:00,
2013-03-19 17:33:00,26.0,18.0,-100.00,NNW,340,19.0,25.0,68,0.00,,,0.00,,2013-03-19 22:33:00,
2013-03-19 17:43:00,25.0,18.0,-100.00,North,0,19.0,23.0,72,0.00,,,0.00,,2013-03-19 22:43:00,
2013-03-19 17:52:00,25.0,18.0,-100.00,North,0,21.0,26.0,74,0.00,,,0.00,,2013-03-19 22:52:00,
2013-03-19 18:02:00,24.0,18.0,-100.00,North,0,22.0,27.0,77,0.00,,,0.00,,2013-03-19 23:02:00,
2013-03-19 18:12:00,23.0,18.0,-100.00,North,355,19.0,27.0,79,0.00,,,0.00,,2013-03-19 23:12:00,
2013-03-19 18:22:00,22.0,18.0,-100.00,North,5,20.0,29.0,80,0.00,,,0.00,,2013-03-19 23:22:00,
2013-03-19 18:32:00,22.0,18.0,-100.00,North,0,14.0,24.0,79,0.00,,,0.00,,2013-03-19 23:32:00,
2013-03-19 18:42:00,22.0,16.0,-100.00,North,0,17.0,23.0,77,0.00,,,0.00,,2013-03-19 23:42:00,
2013-03-19 18:52:00,22.0,16.0,-100.00,North,0,17.0,24.0,76,0.00,,,0.00,,2013-03-19 23:52:00,
2013-03-19 19:02:00,22.0,16.0,-100.00,NNW,345,18.0,26.0,74,0.00,,,0.00,,2013-03-20 00:02:00,
2013-03-19 19:12:00,22.0,14.0,-100.00,NNW,345,24.0,28.0,72,0.00,,,0.00,,2013-03-20 00:12:00,
2013-03-19 19:22:00,21.0,14.0,-100.00,North,350,21.0,28.0,71,0.00,,,0.00,,2013-03-20 00:22:00,
2013-03-19 19:33:00,21.0,14.0,-100.00,North,0,21.0,28.0,73,0.00,,,0.00,,2013-03-20 00:33:00,
2013-03-19 19:42:00,20.0,14.0,-100.00,North,0,19.0,26.0,74,0.00,,,0.00,,2013-03-20 00:42:00,
2013-03-19 19:52:00,20.0,14.0,-100.00,North,355,21.0,27.0,75,0.00,,,0.00,,2013-03-20 00:52:00,
2013-03-19 20:03:00,19.0,12.0,-100.00,NNW,345,21.0,27.0,75,0.00,,,0.00,,2013-03-20 01:03:00,
2013-03-19 20:12:00,18.0,12.0,-100.00,North,355,20.0,27.0,75,0.00,,,0.00,,2013-03-20 01:12:00,
2013-03-19 20:22:00,18.0,12.0,-100.00,North,350,18.0,26.0,75,0.00,,,0.00,,2013-03-20 01:22:00,
2013-03-19 20:32:00,18.0,12.0,-100.00,North,355,16.0,26.0,76,0.00,,,0.00,,2013-03-20 01:32:00,
2013-03-19 20:42:00,17.0,12.0,-100.00,North,0,16.0,25.0,77,0.00,,,0.00,,2013-03-20 01:42:00,
2013-03-19 20:52:00,17.0,10.0,-100.00,North,0,21.0,26.0,77,0.00,,,0.00,,2013-03-20 01:52:00,
2013-03-19 21:02:00,17.0,10.0,-100.00,North,350,18.0,27.0,76,0.00,,,0.00,,2013-03-20 02:02:00,
2013-03-19 21:12:00,17.0,10.0,-100.00,North,350,23.0,27.0,76,0.00,,,0.00,,2013-03-20 02:12:00,
2013-03-19 21:22:00,17.0,10.0,-100.00,North,350,22.0,28.0,76,0.00,,,0.00,,2013-03-20 02:22:00,
2013-03-19 21:32:00,17.0,10.0,-100.00,North,355,26.0,30.0,77,0.00,,,0.00,,2013-03-20 02:32:00,
2013-03-19 21:42:00,16.0,10.0,-100.00,North,355,22.0,32.0,76,0.00,,,0.00,,2013-03-20 02:42:00,
2013-03-19 21:52:00,16.0,10.0,-100.00,North,0,21.0,28.0,76,0.00,,,0.00,,2013-03-20 02:52:00,
2013-03-19 22:02:00,16.0,10.0,-100.00,North,0,16.0,24.0,76,0.00,,,0.00,,2013-03-20 03:02:00,
2013-03-19 22:12:00,16.0,10.0,-100.00,North,350,19.0,24.0,77,0.00,,,0.00,,2013-03-20 03:12:00,
2013-03-19 22:22:00,15.0,10.0,-100.00,North,350,23.0,29.0,77,0.00,,,0.00,,2013-03-20 03:22:00,
2013-03-19 22:33:00,15.0,10.0,-100.00,NNW,340,22.0,25.0,77,0.00,,,0.00,,2013-03-20 03:33:00,
2013-03-19 22:42:00,15.0,9.0,-100.00,North,350,22.0,28.0,77,0.00,,,0.00,,2013-03-20 03:42:00,
2013-03-19 22:53:00,15.0,9.0,-100.00,North,0,21.0,26.0,78,0.00,,,0.00,,2013-03-20 03:53:00,
2013-03-19 23:03:00,15.0,9.0,-100.00,North,0,23.0,28.0,78,0.00,,,0.00,,2013-03-20 04:03:00,
2013-03-19 23:12:00,15.0,9.0,-100.00,North,355,20.0,28.0,78,0.00,,,0.00,,2013-03-20 04:12:00,
2013-03-19 23:22:00,15.0,9.0,-100.00,North,350,22.0,27.0,77,0.00,,,0.00,,2013-03-20 04:22:00,
2013-03-19 23:32:00,14.0,9.0,-100.00,North,0,21.0,26.0,78,0.00,,,0.00,,2013-03-20 04:32:00,
2013-03-19 23:43:00,14.0,9.0,-100.00,NNW,340,19.0,24.0,79,0.00,,,0.00,,2013-03-20 04:43:00,
2013-03-19 23:52:00,14.0,9.0,-100.00,North,355,18.0,27.0,80,0.00,,,0.00,,2013-03-20 04:52:00,